EW1134 Weather Reports


Display with metric or nautical units.
time (UTC)temp
F
wind
direction
speed
MPH
gust
MPH
rain 1hr
in
rain 24hr
in
rain mn
in
humidity
%
barometer
mb
20260510123503 78 37 6.0 13.0 0.00 0.00 0.00 41 1014.8
20260510123004 78 36 6.0 13.0 0.00 0.00 0.00 39 1014.6
20260510122503 79 32 6.0 13.0 0.00 0.00 0.00 38 1014.8
20260510121504 80 41 5.0 11.0 0.00 0.00 0.00 37 1014.8
20260510121004 80 21 5.0 12.0 0.00 0.00 0.00 37 1014.9
20260510120504 80 26 5.0 12.0 0.00 0.00 0.00 37 1015.0
20260510120005 81 41 4.0 12.0 0.00 0.00 0.00 37 1014.9
20260510115504 81 44 5.0 10.0 0.00 0.00 0.00 37 1014.9
20260510114504 80 21 4.0 9.0 0.00 0.00 0.00 38 1014.9
20260510114003 80 21 5.0 10.0 0.00 0.00 0.00 40 1014.9
20260510113503 80 15 5.0 10.0 0.00 0.00 0.00 39 1015.0
20260510113005 80 15 4.0 9.0 0.00 0.00 0.00 40 1015.0
20260510112504 80 24 4.0 8.0 0.00 0.00 0.00 41 1015.2
20260510112004 80 31 4.0 8.0 0.00 0.00 0.00 39 1015.1
20260510111505 80 32 3.0 8.0 0.00 0.00 0.00 40 1015.0
20260510111004 79 22 3.0 10.0 0.00 0.00 0.00 41 1015.2
20260510110504 79 9 5.0 11.0 0.00 0.00 0.00 42 1015.2
20260510110005 79 19 5.0 11.0 0.00 0.00 0.00 42 1015.3
20260510105504 79 36 5.0 11.0 0.00 0.00 0.00 42 1015.1
20260510105004 78 41 5.0 11.0 0.00 0.00 0.00 43 1015.4
20260510104504 78 47 5.0 10.0 0.00 0.00 0.00 43 1015.3
20260510104004 78 40 4.0 8.0 0.00 0.00 0.00 42 1015.4
20260510103504 78 18 4.0 9.0 0.00 0.00 0.00 43 1015.4
20260510103005 78 14 4.0 9.0 0.00 0.00 0.00 43 1015.5
20260510102504 78 20 5.0 10.0 0.00 0.00 0.00 43 1015.5
20260510102003 78 18 5.0 10.0 0.00 0.00 0.00 46 1015.6
20260510101003 78 40 5.0 12.0 0.00 0.00 0.00 45 1015.9
20260510100004 78 35 5.0 10.0 0.00 0.00 0.00 45 1015.9
20260510095504 78 47 5.0 10.0 0.00 0.00 0.00 44 1016.1
20260510095004 78 39 5.0 11.0 0.00 0.00 0.00 43 1016.1
20260510094504 78 13 4.0 11.0 0.00 0.00 0.00 42 1016.2
20260510094003 78 15 4.0 11.0 0.00 0.00 0.00 43 1016.2
20260510093504 78 28 4.0 9.0 0.00 0.00 0.00 43 1016.0
20260510093004 78 24 4.0 9.0 0.00 0.00 0.00 43 1016.1
20260510092504 78 25 4.0 8.0 0.00 0.00 0.00 43 1016.2
20260510092004 78 30 4.0 9.0 0.00 0.00 0.00 43 1016.0
20260510091004 78 31 4.0 10.0 0.00 0.00 0.00 43 1016.1
20260510090504 77 35 4.0 10.0 0.00 0.00 0.00 45 1016.3
20260510090005 77 54 5.0 11.0 0.00 0.00 0.00 46 1016.2
20260510085503 77 55 5.0 11.0 0.00 0.00 0.00 46 1016.1
20260510085003 77 30 3.0 11.0 0.00 0.00 0.00 47 1016.3
20260510084504 77 32 4.0 9.0 0.00 0.00 0.00 47 1016.3
20260510084004 77 49 3.0 9.0 0.00 0.00 0.00 47 1016.2
20260510083503 77 46 3.0 7.0 0.00 0.00 0.00 48 1016.2
20260510083004 77 12 2.0 7.0 0.00 0.00 0.00 48 1016.2
20260510082504 76 348 1.0 7.0 0.00 0.00 0.00 49 1016.4
20260510082003 76 33 2.0 8.0 0.00 0.00 0.00 49 1016.6
20260510081504 76 26 3.0 8.0 0.00 0.00 0.00 50 1016.5
20260510081004 75 346 2.0 7.0 0.00 0.00 0.00 51 1016.5
20260510080504 75 25 3.0 8.0 0.00 0.00 0.00 51 1016.4
20260510080004 74 35 3.0 8.0 0.00 0.00 0.00 52 1016.4
20260510075503 74 56 4.0 9.0 0.00 0.00 0.00 54 1016.3
20260510075003 74 73 4.0 9.0 0.00 0.00 0.00 55 1016.2
20260510074003 74 36 3.0 7.0 0.00 0.00 0.00 57 1016.1
20260510073504 74 46 4.0 9.0 0.00 0.00 0.00 57 1016.1
20260510073004 75 37 4.0 9.0 0.00 0.00 0.00 55 1016.0
20260510072503 75 3 3.0 9.0 0.00 0.00 0.00 55 1015.8
20260510072004 75 22 2.0 7.0 0.00 0.00 0.00 56 1016.1
20260510071505 75 59 1.0 6.0 0.00 0.00 0.00 56 1016.0
20260510070503 73 301 1.0 5.0 0.00 0.00 0.00 58 1016.1
20260510070005 73 255 1.0 5.0 0.00 0.00 0.00 58 1016.0
20260510065504 72 191 1.0 4.0 0.00 0.00 0.00 59 1015.8
20260510065003 72 228 1.0 4.0 0.00 0.00 0.00 60 1015.8
20260510064504 72 333 1.0 4.0 0.00 0.00 0.00 61 1016.0
20260510064003 71 39 0.0 4.0 0.00 0.00 0.00 62 1016.1
20260510063004 69 58 1.0 4.0 0.00 0.00 0.00 63 1016.0
20260510062503 69 74 1.0 4.0 0.00 0.00 0.00 64 1016.0
20260510062004 69 84 1.0 4.0 0.00 0.00 0.00 65 1016.0
20260510061504 68 111 1.0 4.0 0.00 0.00 0.00 66 1016.0
20260510061003 67 185 0.0 3.0 0.00 0.00 0.00 67 1016.1
20260510060004 66 215 1.0 4.0 0.00 0.00 0.00 69 1016.1
20260510055504 66 220 0.0 3.0 0.00 0.00 0.00 71 1016.1
20260510055004 65 175 0.0 3.0 0.00 0.00 0.00 72 1016.0
20260510054504 64 188 1.0 4.0 0.00 0.00 0.00 72 1015.9
20260510054004 63 219 1.0 4.0 0.00 0.00 0.00 73 1016.1
20260510053503 63 223 2.0 4.0 0.00 0.00 0.00 73 1016.0
20260510053004 63 215 2.0 4.0 0.00 0.00 0.00 74 1016.1
20260510052503 62 205 1.0 4.0 0.00 0.00 0.00 76 1015.9
20260510052004 62 234 0.0 3.0 0.00 0.00 0.00 77 1015.7
20260510051504 61 215 1.0 3.0 0.00 0.00 0.00 78 1015.8
20260510051003 61 196 1.0 4.0 0.00 0.00 0.00 78 1015.8
20260510050503 60 185 1.0 4.0 0.00 0.00 0.00 79 1015.8
20260510050005 60 191 1.0 4.0 0.00 0.00 0.00 79 1015.7
20260510045004 59 195 2.0 5.0 0.00 0.00 0.00 80 1015.7
20260510044504 58 218 2.0 4.0 0.00 0.00 0.00 80 1015.6
20260510044003 58 233 1.0 4.0 0.00 0.00 0.00 80 1015.6
20260510043004 58 229 3.0 6.0 0.00 0.00 0.00 80 1015.5
20260510042504 58 225 3.0 6.0 0.00 0.00 0.00 81 1015.6
20260510042003 58 232 1.0 4.0 0.00 0.00 0.00 81 1015.6
20260510041504 57 248 0.0 3.0 0.00 0.00 0.00 81 1015.6
20260510041003 57 230 1.0 4.0 0.00 0.00 0.00 81 1015.6
20260510040504 57 239 1.0 4.0 0.00 0.00 0.00 81 1015.3
20260510040004 57 239 0.0 3.0 0.00 0.00 0.00 81 1015.3
20260510035504 56 231 1.0 5.0 0.00 0.00 0.00 81 1015.4
20260510035003 56 234 2.0 5.0 0.00 0.00 0.00 81 1015.1
20260510034504 56 234 1.0 4.0 0.00 0.00 0.00 80 1015.1
20260510034004 57 222 1.0 3.0 0.00 0.00 0.00 81 1015.3
20260510033504 57 198 1.0 3.0 0.00 0.00 0.00 81 1015.0
20260510033004 57 217 0.0 3.0 0.00 0.00 0.00 80 1014.9
20260510032503 57 232 0.0 3.0 0.00 0.00 0.00 80 1015.0
20260510032003 57 256 0.0 3.0 0.00 0.00 0.00 80 1014.8
20260510031504 57 246 0.0 4.0 0.00 0.00 0.00 80 1015.1
20260510031004 57 225 0.0 4.0 0.00 0.00 0.00 80 1015.0
20260510030503 57 229 1.0 3.0 0.00 0.00 0.00 80 1015.0
20260510030004 56 235 0.0 3.0 0.00 0.00 0.00 80 1015.1
20260510025504 56 263 0.0 4.0 0.00 0.00 0.00 79 1015.0
20260510025003 57 238 1.0 4.0 0.00 0.00 0.00 79 1015.0
20260510024504 57 225 2.0 4.0 0.00 0.00 0.00 79 1014.9
20260510024003 57 230 1.0 4.0 0.00 0.00 0.00 79 1015.1
20260510023504 57 254 0.0 3.0 0.00 0.00 0.00 79 1014.9
20260510023004 57 259 1.0 4.0 0.00 0.00 0.00 79 1014.9
20260510022503 57 263 1.0 4.0 0.00 0.00 0.00 79 1015.1
20260510022004 57 236 0.0 4.0 0.00 0.00 0.00 79 1014.8
20260510021003 57 175 0.0 2.0 0.00 0.00 0.00 78 1015.0
20260510020503 57 75 0.0 2.0 0.00 0.00 0.00 78 1014.9
20260510020004 58 79 0.0 2.0 0.00 0.00 0.00 78 1014.9
20260510015503 58 240 0.0 3.0 0.00 0.00 0.00 78 1014.8
20260510015004 58 242 0.0 3.0 0.00 0.00 0.00 78 1014.7
20260510014504 58 102 0.0 1.0 0.00 0.00 0.00 78 1014.8
20260510014004 58 128 0.0 1.0 0.00 0.00 0.00 78 1014.8
20260510013504 58 222 0.0 3.0 0.00 0.00 0.00 78 1014.9
20260510012504 58 263 0.0 3.0 0.00 0.00 0.00 78 1015.2
20260510012003 58 262 0.0 3.0 0.00 0.00 0.00 77 1015.1
20260510011504 58 249 1.0 5.0 0.00 0.00 0.00 77 1015.1
20260510011004 58 229 3.0 5.0 0.00 0.00 0.00 77 1015.0
20260510010504 59 225 4.0 5.0 0.00 0.00 0.00 77 1015.1
20260510010004 59 231 4.0 5.0 0.00 0.00 0.00 77 1015.0
20260510005003 59 242 2.0 5.0 0.00 0.00 0.00 77 1015.0
20260510004504 59 225 1.0 5.0 0.00 0.00 0.00 77 1014.8
20260510004003 59 232 0.0 3.0 0.00 0.00 0.00 76 1014.9
20260510003504 59 254 0.0 2.0 0.00 0.00 0.00 75 1015.1
20260510003004 59 238 0.0 2.0 0.00 0.00 0.00 74 1014.9
20260510002504 59 225 0.0 4.0 0.00 0.00 0.00 74 1014.8
20260510002003 59 231 1.0 4.0 0.00 0.00 0.00 74 1015.1
20260510001504 60 226 2.0 4.0 0.00 0.00 0.00 74 1015.0
20260510001003 60 222 1.0 4.0 0.00 0.00 0.00 74 1014.8
20260510000504 60 231 0.0 4.0 0.00 0.00 0.00 74 1014.9
20260510000004 60 225 2.0 5.0 0.00 0.00 0.00 74 1015.0
20260509235004 60 229 2.0 5.0 0.00 0.00 0.00 74 1015.1
20260509234504 60 233 2.0 4.0 0.00 0.00 0.00 74 1015.1
20260509234003 60 231 2.0 5.0 0.00 0.00 0.00 74 1015.1
20260509233504 60 234 2.0 5.0 0.00 0.00 0.00 74 1015.1
20260509232504 60 254 1.0 3.0 0.00 0.00 0.00 73 1015.2
20260509232003 60 270 0.0 3.0 0.00 0.00 0.00 72 1015.4
20260509231504 60 270 0.0 1.0 0.00 0.00 0.00 71 1015.2
20260509231004 60 0 0.0 0.0 0.00 0.00 0.00 71 1015.2
20260509230503 60 1 0.0 2.0 0.00 0.00 0.00 71 1015.2
20260509230004 60 1 0.0 2.0 0.00 0.00 0.00 70 1015.2
20260509225504 60 94 0.0 2.0 0.00 0.00 0.00 70 1015.3
20260509225003 60 93 1.0 3.0 0.00 0.00 0.00 69 1015.3
20260509224504 61 93 1.0 3.0 0.00 0.00 0.00 69 1015.4
20260509224004 61 109 1.0 3.0 0.00 0.00 0.00 69 1015.2
20260509223004 61 0 0.0 0.0 0.00 0.00 0.00 68 1015.3
20260509222504 62 0 0.0 0.0 0.00 0.00 0.00 67 1015.4
20260509222003 62 0 0.0 0.0 0.00 0.00 0.00 67 1015.5
20260509221504 62 205 0.0 4.0 0.00 0.00 0.00 67 1015.3
20260509221004 62 195 1.0 4.0 0.00 0.00 0.00 66 1015.4
20260509220503 62 195 1.0 4.0 0.00 0.00 0.00 65 1015.5
20260509215504 62 223 2.0 5.0 0.00 0.00 0.00 65 1015.5
20260509215003 62 220 1.0 5.0 0.00 0.00 0.00 65 1015.5
20260509214504 62 218 0.0 4.0 0.00 0.00 0.00 64 1015.5
20260509214004 62 235 0.0 3.0 0.00 0.00 0.00 64 1015.4
20260509212503 62 203 1.0 4.0 0.00 0.00 0.00 64 1015.1
20260509212004 62 196 1.0 4.0 0.00 0.00 0.00 65 1015.3
20260509210503 63 230 3.0 6.0 0.00 0.00 0.00 65 1015.5
20260509205503 63 221 2.0 4.0 0.00 0.00 0.00 65 1015.2
20260509204504 63 212 1.0 4.0 0.00 0.00 0.00 66 1015.0
20260509204003 64 220 1.0 4.0 0.00 0.00 0.00 66 1015.0
20260509203504 64 225 1.0 4.0 0.00 0.00 0.00 67 1015.1
20260509202503 64 272 0.0 3.0 0.00 0.00 0.00 67 1015.1
20260509202004 64 302 0.0 4.0 0.00 0.00 0.00 66 1015.2
20260509201003 64 265 1.0 5.0 0.00 0.00 0.00 66 1014.8
20260509200503 64 271 0.0 3.0 0.00 0.00 0.00 65 1014.8
20260509195504 64 234 0.0 3.0 0.00 0.00 0.00 63 1014.9
20260509195003 64 227 0.0 4.0 0.00 0.00 0.00 62 1014.4
20260509194504 64 226 1.0 4.0 0.00 0.00 0.00 62 1014.6
20260509194003 65 225 1.0 4.0 0.00 0.00 0.00 62 1014.3
20260509193503 65 225 0.0 4.0 0.00 0.00 0.00 61 1014.5
20260509193004 65 204 0.0 4.0 0.00 0.00 0.00 61 1014.4
20260509192503 65 169 0.0 3.0 0.00 0.00 0.00 61 1014.2
20260509192004 65 13 0.0 3.0 0.00 0.00 0.00 60 1014.1
20260509191504 65 16 0.0 3.0 0.00 0.00 0.00 60 1014.0
20260509191003 66 44 0.0 2.0 0.00 0.00 0.00 59 1014.2
20260509190503 66 95 0.0 3.0 0.00 0.00 0.00 59 1014.1
20260509190005 66 108 1.0 3.0 0.00 0.00 0.00 58 1013.9
20260509185503 66 94 0.0 3.0 0.00 0.00 0.00 56 1013.7
20260509185003 66 113 0.0 3.0 0.00 0.00 0.00 54 1013.9
20260509184504 66 157 1.0 4.0 0.00 0.00 0.00 54 1013.6
20260509184004 66 182 1.0 4.0 0.00 0.00 0.00 54 1013.6
20260509183503 66 231 0.0 3.0 0.00 0.00 0.00 55 1013.6
20260509182503 67 15 0.0 2.0 0.00 0.00 0.00 55 1013.7
20260509182004 67 15 0.0 4.0 0.00 0.00 0.00 54 1013.6
20260509181003 68 339 1.0 5.0 0.00 0.00 0.00 52 1013.3
20260509180504 68 322 1.0 5.0 0.00 0.00 0.00 51 1013.4
20260509180004 68 314 1.0 5.0 0.00 0.00 0.00 49 1013.2
20260509175503 68 314 1.0 7.0 0.00 0.00 0.00 48 1013.2
20260509175003 68 314 2.0 7.0 0.00 0.00 0.00 51 1013.1
20260509174503 68 314 3.0 8.0 0.00 0.00 0.00 52 1013.0
20260509174003 68 314 3.0 8.0 0.00 0.00 0.00 52 1013.0
20260509173504 69 314 3.0 6.0 0.00 0.00 0.00 51 1013.0
20260509173004 69 326 3.0 8.0 0.00 0.00 0.00 51 1012.8
20260509172003 69 323 2.0 6.0 0.00 0.00 0.00 51 1012.9
20260509171504 69 329 1.0 6.0 0.00 0.00 0.00 51 1012.8
20260509171004 69 334 1.0 6.0 0.00 0.00 0.00 52 1012.6
20260509170504 69 354 0.0 4.0 0.00 0.00 0.00 52 1012.7
20260509170004 70 1 1.0 7.0 0.00 0.00 0.00 51 1012.6
20260509165004 70 333 3.0 7.0 0.00 0.00 0.00 49 1012.7
20260509164504 70 352 2.0 4.0 0.00 0.00 0.00 48 1012.5
20260509164003 71 4 2.0 4.0 0.00 0.00 0.00 48 1012.5
20260509163503 71 355 2.0 5.0 0.00 0.00 0.00 47 1012.2
20260509163005 71 348 2.0 5.0 0.00 0.00 0.00 47 1012.5
20260509162503 72 351 2.0 4.0 0.00 0.00 0.00 46 1012.4
20260509162003 72 3 2.0 5.0 0.00 0.00 0.00 46 1012.4
20260509161503 72 4 2.0 5.0 0.00 0.00 0.00 46 1012.4
20260509160503 72 277 3.0 6.0 0.00 0.00 0.00 45 1012.1
20260509160004 73 315 4.0 11.0 0.00 0.00 0.00 44 1012.3
20260509155504 73 24 5.0 11.0 0.00 0.00 0.00 44 1012.2
20260509155003 74 41 5.0 10.0 0.00 0.00 0.00 43 1012.3
20260509154504 74 50 4.0 10.0 0.00 0.00 0.00 42 1012.1
20260509154004 74 54 3.0 9.0 0.00 0.00 0.00 40 1012.2
20260509153503 75 21 4.0 6.0 0.00 0.00 0.00 41 1012.3
20260509153004 75 8 5.0 11.0 0.00 0.00 0.00 41 1012.2
20260509152003 76 328 5.0 9.0 0.00 0.00 0.00 42 1012.3
20260509151504 76 348 4.0 10.0 0.00 0.00 0.00 42 1012.0
20260509150503 76 348 3.0 9.0 0.00 0.00 0.00 42 1012.2
20260509150005 76 3 4.0 8.0 0.00 0.00 0.00 42 1011.8
20260509145503 76 358 5.0 7.0 0.00 0.00 0.00 43 1012.1
20260509145004 76 345 5.0 9.0 0.00 0.00 0.00 43 1012.1
20260509144504 76 353 3.0 9.0 0.00 0.00 0.00 43 1012.0
20260509144003 76 6 3.0 8.0 0.00 0.00 0.00 43 1012.1
20260509143504 76 11 4.0 10.0 0.00 0.00 0.00 42 1011.9
20260509143004 75 12 4.0 12.0 0.00 0.00 0.00 43 1012.1
20260509142503 75 9 5.0 12.0 0.00 0.00 0.00 43 1012.1
20260509141004 76 31 7.0 13.0 0.00 0.00 0.00 42 1012.1
20260509140503 76 34 7.0 13.0 0.00 0.00 0.00 41 1012.1
20260509140005 77 17 6.0 11.0 0.00 0.00 0.00 40 1012.1
20260509135504 78 30 6.0 12.0 0.00 0.00 0.00 40 1012.1
20260509135003 78 46 7.0 13.0 0.00 0.00 0.00 35 1012.1
20260509134504 78 50 7.0 13.0 0.00 0.00 0.00 35 1012.4
20260509134003 78 53 6.0 11.0 0.00 0.00 0.00 34 1012.1
20260509133504 78 28 7.0 12.0 0.00 0.00 0.00 33 1012.1
20260509133004 78 41 7.0 13.0 0.00 0.00 0.00 33 1012.2
20260509132503 78 77 7.0 13.0 0.00 0.00 0.00 32 1012.3
20260509132004 78 64 7.0 12.0 0.00 0.00 0.00 33 1012.2
20260509131504 78 31 8.0 15.0 0.00 0.00 0.00 34 1012.4
20260509131003 78 35 8.0 15.0 0.00 0.00 0.00 33 1012.6
20260509130004 78 5 8.0 13.0 0.00 0.00 0.00 35 1012.6
20260509125503 78 29 8.0 14.0 0.00 0.00 0.00 34 1012.4
20260509124504 78 34 8.0 14.0 0.00 0.00 0.00 34 1012.8
20260509124004 78 42 8.0 16.0 0.00 0.00 0.00 33 1012.7